| time (UTC) | temp C | wind direction | speed KPH | gust KPH | rain 1hr cm | rain 24hr cm | rain mn cm | humidity % | barometer mb |
| 20260508100842 | 12 | 54 | 1.6 | 6.4 | 0.00 | 0.00 | 0.00 | 74 | 1015.4 |
| 20260508100342 | 12 | 59 | 0.0 | 6.4 | 0.00 | 0.00 | 0.00 | 75 | 1015.4 |
| 20260508095842 | 12 | 62 | 3.2 | 4.8 | 0.00 | 0.00 | 0.00 | 73 | 1015.4 |
| 20260508095345 | 12 | 110 | 1.6 | 6.4 | 0.00 | 0.00 | 0.00 | 72 | 1015.4 |
| 20260508094843 | 12 | 29 | 1.6 | 6.4 | 0.00 | 0.00 | 0.00 | 74 | 1015.4 |
| 20260508094345 | 12 | 29 | 3.2 | 9.7 | 0.00 | 0.00 | 0.00 | 73 | 1015.5 |
| 20260508093842 | 13 | 57 | 6.4 | 9.7 | 0.00 | 0.00 | 0.00 | 73 | 1015.5 |
| 20260508093349 | 12 | 355 | 3.2 | 9.7 | 0.00 | 0.00 | 0.00 | 74 | 1015.5 |
| 20260508092902 | 13 | 15 | 3.2 | 9.7 | 0.00 | 0.00 | 0.00 | 74 | 1015.5 |
| 20260508092358 | 13 | 24 | 6.4 | 9.7 | 0.00 | 0.00 | 0.00 | 74 | 1015.4 |
| 20260508091912 | 13 | 5 | 4.8 | 9.7 | 0.00 | 0.00 | 0.00 | 75 | 1015.4 |
| 20260508091342 | 12 | 65 | 3.2 | 9.7 | 0.00 | 0.00 | 0.00 | 72 | 1015.3 |
| 20260508090905 | 12 | 38 | 1.6 | 8.0 | 0.00 | 0.00 | 0.00 | 75 | 1015.3 |
| 20260508090403 | 12 | 67 | 1.6 | 6.4 | 0.00 | 0.00 | 0.00 | 76 | 1015.3 |
| 20260508085857 | 12 | 69 | 3.2 | 8.0 | 0.00 | 0.00 | 0.00 | 77 | 1015.3 |
| 20260508085413 | 11 | 360 | 3.2 | 8.0 | 0.00 | 0.00 | 0.00 | 77 | 1015.3 |
| 20260508084847 | 11 | 329 | 4.8 | 6.4 | 0.00 | 0.00 | 0.00 | 78 | 1015.3 |
| 20260508084344 | 11 | 31 | 4.8 | 6.4 | 0.00 | 0.00 | 0.00 | 81 | 1015.3 |
| 20260508083846 | 11 | 57 | 3.2 | 4.8 | 0.00 | 0.00 | 0.00 | 81 | 1015.4 |
| 20260508083405 | 10 | 61 | 3.2 | 6.4 | 0.00 | 0.00 | 0.00 | 82 | 1015.4 |
| 20260508082902 | 10 | 40 | 3.2 | 6.4 | 0.00 | 0.00 | 0.00 | 82 | 1015.3 |
| 20260508082359 | 10 | 57 | 3.2 | 6.4 | 0.00 | 0.00 | 0.00 | 82 | 1015.4 |
| 20260508081845 | 10 | 69 | 4.8 | 6.4 | 0.00 | 0.00 | 0.00 | 82 | 1015.4 |
| 20260508081352 | 10 | 40 | 3.2 | 9.7 | 0.00 | 0.00 | 0.00 | 84 | 1015.4 |
| 20260508080846 | 11 | 15 | 1.6 | 9.7 | 0.00 | 0.00 | 0.00 | 81 | 1015.4 |
| 20260508080346 | 10 | 120 | 1.6 | 3.2 | 0.00 | 0.00 | 0.00 | 82 | 1015.3 |
| 20260508075856 | 10 | 103 | 1.6 | 3.2 | 0.00 | 0.00 | 0.00 | 84 | 1015.2 |
| 20260508075355 | 9 | 139 | 1.6 | 4.8 | 0.00 | 0.00 | 0.00 | 83 | 1015.2 |
| 20260508074848 | 9 | 135 | 3.2 | 4.8 | 0.00 | 0.00 | 0.00 | 84 | 1015.2 |
| 20260508074346 | 9 | 123 | 3.2 | 4.8 | 0.00 | 0.00 | 0.00 | 85 | 1015.1 |
| 20260508073844 | 9 | 122 | 1.6 | 4.8 | 0.00 | 0.00 | 0.00 | 84 | 1015.1 |
| 20260508073344 | 9 | 139 | 0.0 | 3.2 | 0.00 | 0.00 | 0.00 | 84 | 1015.0 |
| 20260508072844 | 8 | 110 | 0.0 | 4.8 | 0.00 | 0.00 | 0.00 | 85 | 1014.9 |
| 20260508072402 | 8 | 110 | 1.6 | 4.8 | 0.00 | 0.00 | 0.00 | 85 | 1014.9 |
| 20260508071903 | 8 | 110 | 1.6 | 6.4 | 0.00 | 0.00 | 0.00 | 85 | 1014.9 |
| 20260508071400 | 8 | 117 | 1.6 | 6.4 | 0.00 | 0.00 | 0.00 | 85 | 1014.8 |
| 20260508070900 | 8 | 155 | 1.6 | 4.8 | 0.00 | 0.00 | 0.00 | 87 | 1014.8 |
| 20260508070357 | 8 | 155 | 0.0 | 1.6 | 0.00 | 0.00 | 0.00 | 88 | 1014.7 |
| 20260508065843 | 7 | 155 | 0.0 | 1.6 | 0.00 | 0.00 | 0.00 | 88 | 1014.7 |
| 20260508065347 | 7 | 154 | 0.0 | 3.2 | 0.00 | 0.00 | 0.00 | 88 | 1014.7 |
| 20260508064902 | 7 | 148 | 0.0 | 4.8 | 0.00 | 0.00 | 0.00 | 88 | 1014.7 |
| 20260508064353 | 7 | 148 | 0.0 | 4.8 | 0.00 | 0.00 | 0.00 | 89 | 1014.7 |
| 20260508063904 | 6 | 148 | 0.0 | 4.8 | 0.00 | 0.00 | 0.00 | 90 | 1014.7 |
| 20260508063354 | 6 | 148 | 1.6 | 8.0 | 0.00 | 0.00 | 0.00 | 90 | 1014.7 |
| 20260508062854 | 6 | 148 | 1.6 | 8.0 | 0.00 | 0.00 | 0.00 | 90 | 1014.7 |
| 20260508062352 | 6 | 131 | 3.2 | 9.7 | 0.00 | 0.00 | 0.00 | 90 | 1014.6 |
| 20260508061842 | 6 | 119 | 4.8 | 9.7 | 0.00 | 0.00 | 0.00 | 90 | 1014.6 |
| 20260508061344 | 6 | 142 | 1.6 | 4.8 | 0.00 | 0.00 | 0.00 | 90 | 1014.4 |
| 20260508060905 | 6 | 142 | 1.6 | 4.8 | 0.00 | 0.00 | 0.00 | 90 | 1014.4 |
| 20260508060356 | 6 | 142 | 1.6 | 4.8 | 0.00 | 0.00 | 0.00 | 90 | 1014.3 |
| 20260508055856 | 6 | 142 | 1.6 | 4.8 | 0.00 | 0.00 | 0.00 | 90 | 1014.2 |
| 20260508055353 | 5 | 142 | 1.6 | 3.2 | 0.00 | 0.00 | 0.00 | 89 | 1014.2 |
| 20260508054842 | 5 | 142 | 0.0 | 6.4 | 0.00 | 0.00 | 0.00 | 89 | 1014.2 |
| 20260508054405 | 5 | 142 | 1.6 | 8.0 | 0.00 | 0.00 | 0.00 | 89 | 1014.2 |
| 20260508053849 | 5 | 134 | 4.8 | 8.0 | 0.00 | 0.00 | 0.00 | 89 | 1014.1 |
| 20260508053403 | 5 | 150 | 3.2 | 8.0 | 0.00 | 0.00 | 0.00 | 89 | 1014.1 |
| 20260508052843 | 5 | 125 | 1.6 | 6.4 | 0.00 | 0.00 | 0.00 | 89 | 1014.1 |
| 20260508052342 | 5 | 123 | 3.2 | 6.4 | 0.00 | 0.00 | 0.00 | 89 | 1014.1 |
| 20260508051925 | 5 | 136 | 3.2 | 8.0 | 0.00 | 0.00 | 0.00 | 89 | 1014.0 |
| 20260508051346 | 5 | 144 | 4.8 | 8.0 | 0.00 | 0.00 | 0.00 | 89 | 1014.0 |
| 20260508050840 | 5 | 151 | 4.8 | 8.0 | 0.00 | 0.00 | 0.00 | 88 | 1014.0 |
| 20260508050413 | 6 | 151 | 6.4 | 9.7 | 0.00 | 0.00 | 0.00 | 88 | 1014.0 |
| 20260508045850 | 6 | 134 | 3.2 | 9.7 | 0.00 | 0.00 | 0.00 | 88 | 1013.9 |
| 20260508045347 | 6 | 148 | 6.4 | 8.0 | 0.00 | 0.00 | 0.00 | 88 | 1014.0 |
| 20260508044843 | 6 | 166 | 1.6 | 8.0 | 0.00 | 0.00 | 0.00 | 88 | 1013.9 |
| 20260508044400 | 6 | 166 | 1.6 | 8.0 | 0.00 | 0.00 | 0.00 | 88 | 1013.9 |
| 20260508043857 | 6 | 165 | 3.2 | 8.0 | 0.00 | 0.00 | 0.00 | 87 | 1013.8 |
| 20260508043347 | 6 | 143 | 4.8 | 8.0 | 0.00 | 0.00 | 0.00 | 87 | 1013.7 |
| 20260508042850 | 6 | 138 | 4.8 | 6.4 | 0.00 | 0.00 | 0.00 | 87 | 1013.6 |
| 20260508042341 | 6 | 130 | 4.8 | 8.0 | 0.00 | 0.00 | 0.00 | 87 | 1013.6 |
| 20260508041854 | 6 | 134 | 4.8 | 8.0 | 0.00 | 0.00 | 0.00 | 87 | 1013.5 |
| 20260508041419 | 6 | 130 | 6.4 | 8.0 | 0.00 | 0.00 | 0.00 | 87 | 1013.5 |
| 20260508040857 | 6 | 141 | 4.8 | 9.7 | 0.00 | 0.00 | 0.00 | 87 | 1013.4 |
| 20260508040347 | 6 | 109 | 1.6 | 6.4 | 0.00 | 0.00 | 0.00 | 87 | 1013.4 |
| 20260508035847 | 7 | 115 | 3.2 | 6.4 | 0.00 | 0.00 | 0.00 | 86 | 1013.4 |
| 20260508035418 | 7 | 120 | 3.2 | 6.4 | 0.00 | 0.00 | 0.00 | 86 | 1013.5 |
| 20260508034852 | 7 | 113 | 3.2 | 6.4 | 0.00 | 0.00 | 0.00 | 86 | 1013.5 |
| 20260508034344 | 7 | 121 | 3.2 | 6.4 | 0.00 | 0.00 | 0.00 | 86 | 1013.4 |
| 20260508033844 | 7 | 119 | 3.2 | 6.4 | 0.00 | 0.00 | 0.00 | 86 | 1013.4 |
| 20260508033408 | 7 | 126 | 3.2 | 6.4 | 0.00 | 0.00 | 0.00 | 86 | 1013.3 |
| 20260508032859 | 7 | 132 | 1.6 | 3.2 | 0.00 | 0.00 | 0.00 | 86 | 1013.3 |
| 20260508032413 | 7 | 132 | 0.0 | 3.2 | 0.00 | 0.00 | 0.00 | 86 | 1013.4 |
| 20260508031916 | 7 | 132 | 1.6 | 4.8 | 0.00 | 0.00 | 0.00 | 86 | 1013.4 |
| 20260508031348 | 7 | 132 | 1.6 | 4.8 | 0.00 | 0.00 | 0.00 | 86 | 1013.4 |
| 20260508030907 | 7 | 125 | 1.6 | 6.4 | 0.00 | 0.00 | 0.00 | 86 | 1013.4 |
| 20260508030343 | 7 | 125 | 3.2 | 8.0 | 0.00 | 0.00 | 0.00 | 86 | 1013.4 |
| 20260508025857 | 7 | 136 | 3.2 | 4.8 | 0.00 | 0.00 | 0.00 | 86 | 1013.4 |
| 20260508025358 | 7 | 107 | 1.6 | 4.8 | 0.00 | 0.00 | 0.00 | 86 | 1013.4 |
| 20260508024855 | 7 | 107 | 1.6 | 9.7 | 0.00 | 0.00 | 0.00 | 86 | 1013.5 |
| 20260508024400 | 8 | 121 | 3.2 | 9.7 | 0.00 | 0.00 | 0.00 | 86 | 1013.4 |
| 20260508023843 | 8 | 132 | 3.2 | 6.4 | 0.00 | 0.00 | 0.00 | 85 | 1013.4 |
| 20260508023350 | 8 | 128 | 1.6 | 6.4 | 0.00 | 0.00 | 0.00 | 85 | 1013.4 |
| 20260508022846 | 8 | 130 | 3.2 | 6.4 | 0.00 | 0.00 | 0.00 | 85 | 1013.4 |
| 20260508022348 | 8 | 162 | 0.0 | 3.2 | 0.00 | 0.00 | 0.00 | 85 | 1013.4 |
| 20260508021846 | 8 | 162 | 1.6 | 3.2 | 0.00 | 0.00 | 0.00 | 85 | 1013.4 |
| 20260508021342 | 8 | 162 | 0.0 | 0.0 | 0.00 | 0.00 | 0.00 | 85 | 1013.4 |
| 20260508020846 | 8 | 162 | 0.0 | 0.0 | 0.00 | 0.00 | 0.00 | 85 | 1013.4 |
| 20260508020347 | 8 | 162 | 0.0 | 0.0 | 0.00 | 0.00 | 0.00 | 85 | 1013.3 |
| 20260508015846 | 8 | 162 | 0.0 | 0.0 | 0.00 | 0.00 | 0.00 | 85 | 1013.3 |
| 20260508015401 | 8 | 162 | 0.0 | 1.6 | 0.00 | 0.00 | 0.00 | 85 | 1013.3 |
| 20260508014904 | 8 | 162 | 0.0 | 3.2 | 0.00 | 0.00 | 0.00 | 85 | 1013.3 |
| 20260508014342 | 8 | 162 | 1.6 | 3.2 | 0.00 | 0.00 | 0.00 | 84 | 1013.2 |
| 20260508013846 | 8 | 162 | 1.6 | 4.8 | 0.00 | 0.00 | 0.00 | 85 | 1013.2 |
| 20260508013340 | 8 | 162 | 1.6 | 4.8 | 0.00 | 0.00 | 0.00 | 84 | 1013.2 |
| 20260508012845 | 8 | 162 | 1.6 | 3.2 | 0.00 | 0.00 | 0.00 | 84 | 1013.2 |
| 20260508012349 | 9 | 162 | 0.0 | 4.8 | 0.00 | 0.00 | 0.00 | 84 | 1013.3 |
| 20260508011906 | 9 | 162 | 3.2 | 4.8 | 0.00 | 0.00 | 0.00 | 84 | 1013.2 |
| 20260508011400 | 9 | 162 | 3.2 | 6.4 | 0.00 | 0.00 | 0.00 | 84 | 1013.3 |
| 20260508010906 | 9 | 190 | 1.6 | 4.8 | 0.00 | 0.00 | 0.00 | 84 | 1013.3 |
| 20260508010346 | 9 | 190 | 3.2 | 4.8 | 0.00 | 0.00 | 0.00 | 84 | 1013.4 |
| 20260508005854 | 9 | 190 | 3.2 | 4.8 | 0.00 | 0.00 | 0.00 | 84 | 1013.4 |
| 20260508005413 | 9 | 190 | 4.8 | 4.8 | 0.00 | 0.00 | 0.00 | 84 | 1013.4 |
| 20260508004910 | 9 | 146 | 1.6 | 3.2 | 0.00 | 0.00 | 0.00 | 83 | 1013.4 |
| 20260508004348 | 9 | 146 | 0.0 | 3.2 | 0.00 | 0.00 | 0.00 | 83 | 1013.3 |
| 20260508003842 | 9 | 146 | 1.6 | 3.2 | 0.00 | 0.00 | 0.00 | 83 | 1013.3 |
| 20260508003344 | 9 | 146 | 1.6 | 3.2 | 0.00 | 0.00 | 0.00 | 83 | 1013.3 |
| 20260508002844 | 9 | 158 | 1.6 | 4.8 | 0.00 | 0.00 | 0.00 | 83 | 1013.3 |
| 20260508002407 | 9 | 159 | 1.6 | 4.8 | 0.00 | 0.00 | 0.00 | 83 | 1013.3 |
| 20260508001901 | 10 | 159 | 1.6 | 4.8 | 0.00 | 0.00 | 0.00 | 83 | 1013.4 |
| 20260508001402 | 10 | 162 | 3.2 | 4.8 | 0.00 | 0.00 | 0.00 | 83 | 1013.4 |
| 20260508000843 | 10 | 169 | 3.2 | 6.4 | 0.00 | 0.00 | 0.00 | 83 | 1013.4 |
| 20260508000358 | 10 | 182 | 4.8 | 6.4 | 0.00 | 0.00 | 0.00 | 83 | 1013.5 |
| 20260507235916 | 10 | 182 | 3.2 | 4.8 | 0.00 | 0.00 | 0.00 | 83 | 1013.5 |
| 20260507235415 | 10 | 180 | 3.2 | 4.8 | 0.00 | 0.00 | 0.00 | 83 | 1013.5 |
| 20260507234843 | 10 | 180 | 3.2 | 4.8 | 0.00 | 0.00 | 0.00 | 84 | 1013.5 |
| 20260507234427 | 10 | 180 | 1.6 | 4.8 | 0.00 | 0.00 | 0.00 | 84 | 1013.5 |
| 20260507233846 | 10 | 163 | 3.2 | 4.8 | 0.00 | 0.00 | 0.00 | 83 | 1013.5 |
| 20260507233402 | 10 | 60 | 1.6 | 4.8 | 0.00 | 0.00 | 0.00 | 83 | 1013.4 |
| 20260507232858 | 10 | 60 | 1.6 | 4.8 | 0.00 | 0.00 | 0.00 | 83 | 1013.5 |
| 20260507232354 | 10 | 24 | 1.6 | 4.8 | 0.00 | 0.00 | 0.00 | 82 | 1013.4 |
| 20260507231852 | 10 | 24 | 0.0 | 4.8 | 0.00 | 0.00 | 0.00 | 82 | 1013.5 |
| 20260507231347 | 10 | 24 | 1.6 | 3.2 | 0.00 | 0.00 | 0.00 | 82 | 1013.5 |
| 20260507230905 | 10 | 338 | 1.6 | 3.2 | 0.00 | 0.00 | 0.00 | 82 | 1013.5 |
| 20260507230343 | 10 | 338 | 0.0 | 0.0 | 0.00 | 0.00 | 0.00 | 81 | 1013.5 |
| 20260507225857 | 10 | 338 | 0.0 | 0.0 | 0.00 | 0.00 | 0.00 | 81 | 1013.5 |
| 20260507225340 | 10 | 338 | 0.0 | 0.0 | 0.00 | 0.00 | 0.00 | 81 | 1013.4 |
| 20260507224903 | 10 | 338 | 0.0 | 0.0 | 0.00 | 0.00 | 0.00 | 81 | 1013.4 |
| 20260507224401 | 10 | 338 | 0.0 | 1.6 | 0.00 | 0.00 | 0.00 | 81 | 1013.3 |
| 20260507223852 | 10 | 338 | 0.0 | 1.6 | 0.00 | 0.00 | 0.00 | 81 | 1013.3 |
| 20260507223353 | 10 | 338 | 0.0 | 0.0 | 0.00 | 0.00 | 0.00 | 81 | 1013.3 |
| 20260507222848 | 10 | 338 | 0.0 | 0.0 | 0.00 | 0.00 | 0.00 | 81 | 1013.3 |
| 20260507222344 | 10 | 338 | 0.0 | 0.0 | 0.00 | 0.00 | 0.00 | 81 | 1013.3 |
| 20260507221844 | 10 | 338 | 0.0 | 4.8 | 0.00 | 0.00 | 0.00 | 81 | 1013.3 |
| 20260507221342 | 10 | 338 | 0.0 | 4.8 | 0.00 | 0.00 | 0.00 | 80 | 1013.4 |
| 20260507220856 | 10 | 338 | 0.0 | 4.8 | 0.00 | 0.00 | 0.00 | 81 | 1013.3 |
| 20260507220355 | 10 | 338 | 0.0 | 6.4 | 0.00 | 0.00 | 0.00 | 80 | 1013.3 |
| 20260507215857 | 10 | 337 | 1.6 | 6.4 | 0.00 | 0.00 | 0.00 | 80 | 1013.3 |
| 20260507215412 | 10 | 281 | 3.2 | 9.7 | 0.00 | 0.00 | 0.00 | 80 | 1013.3 |
| 20260507214849 | 10 | 244 | 3.2 | 11.3 | 0.00 | 0.00 | 0.00 | 79 | 1013.3 |
| 20260507214341 | 10 | 210 | 8.0 | 12.9 | 0.00 | 0.00 | 0.00 | 79 | 1013.3 |
| 20260507213848 | 10 | 229 | 9.7 | 14.5 | 0.00 | 0.00 | 0.00 | 79 | 1013.2 |
| 20260507213405 | 10 | 204 | 11.3 | 14.5 | 0.00 | 0.00 | 0.00 | 79 | 1013.1 |
| 20260507212840 | 10 | 207 | 11.3 | 17.7 | 0.00 | 0.00 | 0.00 | 78 | 1013.1 |
| 20260507212358 | 10 | 215 | 11.3 | 17.7 | 0.00 | 0.00 | 0.00 | 78 | 1013.0 |
| 20260507211851 | 10 | 192 | 9.7 | 14.5 | 0.00 | 0.00 | 0.00 | 78 | 1012.9 |
| 20260507211409 | 10 | 205 | 9.7 | 14.5 | 0.00 | 0.00 | 0.00 | 78 | 1012.9 |
| 20260507210900 | 10 | 201 | 9.7 | 16.1 | 0.00 | 0.00 | 0.00 | 77 | 1012.9 |
| 20260507210421 | 10 | 197 | 9.7 | 16.1 | 0.00 | 0.00 | 0.00 | 77 | 1012.8 |
| 20260507205900 | 10 | 212 | 9.7 | 12.9 | 0.00 | 0.00 | 0.00 | 77 | 1012.7 |
| 20260507205359 | 11 | 207 | 8.0 | 12.9 | 0.00 | 0.00 | 0.00 | 76 | 1012.7 |
| 20260507204859 | 11 | 197 | 8.0 | 11.3 | 0.00 | 0.00 | 0.00 | 76 | 1012.7 |
| 20260507204353 | 11 | 190 | 6.4 | 8.0 | 0.00 | 0.00 | 0.00 | 76 | 1012.7 |
| 20260507203849 | 11 | 196 | 3.2 | 11.3 | 0.00 | 0.00 | 0.00 | 75 | 1012.6 |
| 20260507203349 | 11 | 198 | 8.0 | 11.3 | 0.00 | 0.00 | 0.00 | 75 | 1012.5 |
| 20260507202850 | 11 | 199 | 8.0 | 14.5 | 0.00 | 0.00 | 0.00 | 75 | 1012.5 |
| 20260507202350 | 11 | 211 | 11.3 | 16.1 | 0.00 | 0.00 | 0.00 | 75 | 1012.4 |
| 20260507201854 | 11 | 210 | 12.9 | 17.7 | 0.00 | 0.00 | 0.00 | 75 | 1012.3 |
| 20260507201349 | 11 | 219 | 12.9 | 17.7 | 0.00 | 0.00 | 0.00 | 74 | 1012.2 |
| 20260507200846 | 11 | 213 | 12.9 | 17.7 | 0.00 | 0.00 | 0.00 | 74 | 1012.2 |
| 20260507200343 | 11 | 217 | 12.9 | 16.1 | 0.00 | 0.00 | 0.00 | 74 | 1012.1 |
| 20260507195841 | 11 | 215 | 11.3 | 17.7 | 0.00 | 0.00 | 0.00 | 74 | 1012.0 |
| 20260507195400 | 11 | 209 | 9.7 | 16.1 | 0.00 | 0.00 | 0.00 | 74 | 1011.9 |
| 20260507194902 | 11 | 223 | 12.9 | 17.7 | 0.00 | 0.00 | 0.00 | 74 | 1011.9 |
| 20260507194402 | 11 | 214 | 12.9 | 19.3 | 0.00 | 0.00 | 0.00 | 74 | 1011.9 |
| 20260507193904 | 11 | 216 | 12.9 | 19.3 | 0.00 | 0.00 | 0.00 | 73 | 1011.8 |
| 20260507193341 | 11 | 204 | 14.5 | 17.7 | 0.00 | 0.00 | 0.00 | 73 | 1011.8 |
| 20260507192858 | 11 | 204 | 12.9 | 17.7 | 0.00 | 0.00 | 0.00 | 73 | 1011.8 |
| 20260507192357 | 12 | 207 | 14.5 | 17.7 | 0.00 | 0.00 | 0.00 | 73 | 1011.8 |
| 20260507191916 | 12 | 234 | 14.5 | 17.7 | 0.00 | 0.00 | 0.00 | 73 | 1011.7 |
| 20260507191350 | 12 | 222 | 16.1 | 19.3 | 0.00 | 0.00 | 0.00 | 72 | 1011.7 |
| 20260507190843 | 12 | 217 | 16.1 | 19.3 | 0.00 | 0.00 | 0.00 | 72 | 1011.7 |
| 20260507190401 | 12 | 211 | 12.9 | 19.3 | 0.00 | 0.00 | 0.00 | 72 | 1011.6 |
| 20260507185900 | 12 | 232 | 12.9 | 24.1 | 0.00 | 0.00 | 0.00 | 72 | 1011.6 |
| 20260507185353 | 12 | 206 | 17.7 | 25.7 | 0.00 | 0.00 | 0.00 | 71 | 1011.6 |
| 20260507184851 | 12 | 219 | 17.7 | 25.7 | 0.00 | 0.00 | 0.00 | 70 | 1011.6 |
| 20260507184348 | 12 | 209 | 20.9 | 25.7 | 0.00 | 0.00 | 0.00 | 70 | 1011.5 |
| 20260507183902 | 12 | 225 | 14.5 | 22.5 | 0.00 | 0.00 | 0.00 | 70 | 1011.5 |
| 20260507183410 | 12 | 219 | 16.1 | 22.5 | 0.00 | 0.00 | 0.00 | 69 | 1011.4 |
| 20260507182840 | 12 | 217 | 12.9 | 16.1 | 0.00 | 0.00 | 0.00 | 67 | 1011.3 |
| 20260507182343 | 12 | 223 | 9.7 | 14.5 | 0.00 | 0.00 | 0.00 | 66 | 1011.2 |
| 20260507181903 | 12 | 219 | 11.3 | 14.5 | 0.00 | 0.00 | 0.00 | 66 | 1011.2 |
| 20260507181353 | 13 | 232 | 11.3 | 14.5 | 0.00 | 0.00 | 0.00 | 65 | 1011.1 |
| 20260507180855 | 13 | 208 | 11.3 | 16.1 | 0.00 | 0.00 | 0.00 | 65 | 1011.1 |
| 20260507180356 | 13 | 207 | 12.9 | 16.1 | 0.00 | 0.00 | 0.00 | 64 | 1011.1 |
| 20260507175850 | 13 | 237 | 11.3 | 16.1 | 0.00 | 0.00 | 0.00 | 64 | 1011.1 |
| 20260507175348 | 13 | 217 | 12.9 | 16.1 | 0.00 | 0.00 | 0.00 | 64 | 1011.1 |
| 20260507174844 | 13 | 224 | 11.3 | 14.5 | 0.00 | 0.00 | 0.00 | 65 | 1011.1 |
| 20260507174347 | 13 | 251 | 11.3 | 14.5 | 0.00 | 0.00 | 0.00 | 64 | 1011.1 |
| 20260507173843 | 13 | 205 | 9.7 | 14.5 | 0.00 | 0.00 | 0.00 | 65 | 1011.1 |
| 20260507173342 | 13 | 221 | 11.3 | 17.7 | 0.00 | 0.00 | 0.00 | 65 | 1011.1 |
| 20260507172903 | 13 | 213 | 11.3 | 17.7 | 0.00 | 0.00 | 0.00 | 64 | 1011.1 |
| 20260507172353 | 13 | 211 | 14.5 | 16.1 | 0.00 | 0.00 | 0.00 | 65 | 1011.0 |
| 20260507171912 | 13 | 259 | 14.5 | 20.9 | 0.00 | 0.00 | 0.00 | 63 | 1011.0 |
| 20260507171343 | 13 | 264 | 14.5 | 20.9 | 0.00 | 0.00 | 0.00 | 64 | 1011.0 |
| 20260507170841 | 13 | 220 | 16.1 | 25.7 | 0.00 | 0.00 | 0.00 | 61 | 1011.0 |
| 20260507170343 | 13 | 224 | 19.3 | 25.7 | 0.00 | 0.00 | 0.00 | 63 | 1011.0 |
| 20260507165903 | 13 | 230 | 17.7 | 25.7 | 0.00 | 0.00 | 0.00 | 63 | 1011.0 |
| 20260507165401 | 14 | 238 | 17.7 | 25.7 | 0.00 | 0.00 | 0.00 | 62 | 1010.9 |
| 20260507164840 | 14 | 218 | 16.1 | 24.1 | 0.00 | 0.00 | 0.00 | 61 | 1010.9 |
| 20260507164357 | 14 | 226 | 12.9 | 24.1 | 0.00 | 0.00 | 0.00 | 63 | 1010.9 |
| 20260507163857 | 13 | 238 | 16.1 | 22.5 | 0.00 | 0.00 | 0.00 | 60 | 1010.9 |
| 20260507163353 | 13 | 207 | 12.9 | 17.7 | 0.00 | 0.00 | 0.00 | 61 | 1010.8 |
| 20260507162851 | 13 | 208 | 12.9 | 17.7 | 0.00 | 0.00 | 0.00 | 60 | 1010.9 |
| 20260507162349 | 13 | 213 | 12.9 | 16.1 | 0.00 | 0.00 | 0.00 | 62 | 1010.9 |
| 20260507161847 | 14 | 224 | 14.5 | 22.5 | 0.00 | 0.00 | 0.00 | 60 | 1010.8 |
| 20260507161344 | 15 | 227 | 14.5 | 29.0 | 0.00 | 0.00 | 0.00 | 57 | 1010.8 |
| 20260507160900 | 15 | 240 | 19.3 | 27.4 | 0.00 | 0.00 | 0.00 | 56 | 1010.8 |
| 20260507160358 | 15 | 204 | 19.3 | 30.6 | 0.00 | 0.00 | 0.00 | 56 | 1010.8 |
| 20260507155855 | 15 | 225 | 22.5 | 30.6 | 0.00 | 0.00 | 0.00 | 56 | 1010.7 |
| 20260507155357 | 16 | 236 | 22.5 | 30.6 | 0.00 | 0.00 | 0.00 | 56 | 1010.6 |
| 20260507154859 | 15 | 209 | 20.9 | 33.8 | 0.00 | 0.00 | 0.00 | 54 | 1010.8 |
| 20260507154349 | 15 | 245 | 20.9 | 25.7 | 0.00 | 0.00 | 0.00 | 55 | 1010.8 |
| 20260507153845 | 15 | 242 | 14.5 | 35.4 | 0.00 | 0.00 | 0.00 | 53 | 1010.7 |
| 20260507153348 | 16 | 233 | 24.1 | 35.4 | 0.00 | 0.00 | 0.00 | 53 | 1010.8 |
| 20260507152844 | 15 | 220 | 17.7 | 25.7 | 0.00 | 0.00 | 0.00 | 54 | 1010.6 |
| 20260507152347 | 15 | 206 | 16.1 | 27.4 | 0.00 | 0.00 | 0.00 | 52 | 1010.7 |
| 20260507151840 | 16 | 237 | 19.3 | 30.6 | 0.00 | 0.00 | 0.00 | 52 | 1010.7 |
| 20260507151359 | 16 | 196 | 17.7 | 29.0 | 0.00 | 0.00 | 0.00 | 55 | 1010.8 |
| 20260507150849 | 16 | 259 | 19.3 | 32.2 | 0.00 | 0.00 | 0.00 | 56 | 1010.8 |
| 20260507150350 | 16 | 217 | 20.9 | 32.2 | 0.00 | 0.00 | 0.00 | 55 | 1010.8 |
| 20260507145851 | 16 | 211 | 19.3 | 24.1 | 0.00 | 0.00 | 0.00 | 57 | 1010.8 |
| 20260507145344 | 15 | 204 | 17.7 | 29.0 | 0.00 | 0.00 | 0.00 | 61 | 1010.9 |
| 20260507144841 | 14 | 232 | 19.3 | 29.0 | 0.00 | 0.00 | 0.00 | 64 | 1010.9 |
| 20260507144401 | 14 | 214 | 11.3 | 17.7 | 0.00 | 0.00 | 0.00 | 63 | 1010.9 |
| 20260507143855 | 14 | 223 | 14.5 | 19.3 | 0.00 | 0.00 | 0.00 | 62 | 1011.0 |
| 20260507143355 | 14 | 193 | 12.9 | 24.1 | 0.00 | 0.00 | 0.00 | 64 | 1011.0 |
| 20260507142853 | 15 | 247 | 14.5 | 24.1 | 0.00 | 0.00 | 0.00 | 65 | 1011.0 |
| 20260507142406 | 15 | 216 | 16.1 | 30.6 | 0.00 | 0.00 | 0.00 | 61 | 1011.1 |
| 20260507141841 | 15 | 239 | 22.5 | 30.6 | 0.00 | 0.00 | 0.00 | 65 | 1011.2 |
| 20260507141341 | 13 | 246 | 17.7 | 25.7 | 0.00 | 0.00 | 0.00 | 68 | 1011.2 |
| 20260507140918 | 13 | 211 | 16.1 | 20.9 | 0.00 | 0.00 | 0.00 | 66 | 1011.1 |
| 20260507140352 | 13 | 216 | 9.7 | 17.7 | 0.00 | 0.00 | 0.00 | 67 | 1011.1 |
| 20260507135848 | 13 | 211 | 14.5 | 20.9 | 0.00 | 0.00 | 0.00 | 66 | 1011.2 |
| 20260507135345 | 14 | 217 | 14.5 | 20.9 | 0.00 | 0.00 | 0.00 | 65 | 1011.2 |
| 20260507134842 | 15 | 211 | 16.1 | 19.3 | 0.00 | 0.00 | 0.00 | 65 | 1011.2 |
| 20260507134420 | 14 | 196 | 9.7 | 16.1 | 0.00 | 0.00 | 0.00 | 68 | 1011.2 |
| 20260507133850 | 13 | 190 | 8.0 | 19.3 | 0.00 | 0.00 | 0.00 | 68 | 1011.3 |
| 20260507133348 | 13 | 191 | 11.3 | 19.3 | 0.00 | 0.00 | 0.00 | 69 | 1011.3 |
| 20260507132910 | 13 | 160 | 11.3 | 19.3 | 0.00 | 0.00 | 0.00 | 70 | 1011.4 |
| 20260507132346 | 13 | 214 | 12.9 | 17.7 | 0.00 | 0.00 | 0.00 | 69 | 1011.4 |
| 20260507131841 | 13 | 235 | 11.3 | 24.1 | 0.00 | 0.00 | 0.00 | 69 | 1011.3 |
| 20260507131358 | 13 | 229 | 16.1 | 24.1 | 0.00 | 0.00 | 0.00 | 67 | 1011.3 |
| 20260507130849 | 13 | 235 | 16.1 | 20.9 | 0.00 | 0.00 | 0.00 | 67 | 1011.3 |
| 20260507130353 | 13 | 171 | 12.9 | 22.5 | 0.00 | 0.00 | 0.00 | 66 | 1011.3 |
| 20260507125857 | 14 | 184 | 16.1 | 24.1 | 0.00 | 0.00 | 0.00 | 64 | 1011.4 |
| 20260507125357 | 13 | 223 | 20.9 | 25.7 | 0.00 | 0.00 | 0.00 | 67 | 1011.4 |
| 20260507124857 | 13 | 175 | 12.9 | 33.8 | 0.00 | 0.00 | 0.00 | 66 | 1011.5 |
| 20260507124352 | 13 | 188 | 20.9 | 33.8 | 0.00 | 0.00 | 0.00 | 67 | 1011.6 |
| 20260507123904 | 14 | 192 | 22.5 | 30.6 | 0.00 | 0.00 | 0.00 | 65 | 1011.5 |
| 20260507123357 | 14 | 207 | 17.7 | 27.4 | 0.00 | 0.00 | 0.00 | 66 | 1011.6 |
| 20260507122859 | 13 | 161 | 16.1 | 24.1 | 0.00 | 0.00 | 0.00 | 64 | 1011.5 |
| 20260507122355 | 14 | 184 | 14.5 | 27.4 | 0.00 | 0.00 | 0.00 | 64 | 1011.7 |
| 20260507121858 | 15 | 198 | 20.9 | 29.0 | 0.00 | 0.00 | 0.00 | 62 | 1011.6 |
| 20260507121353 | 15 | 188 | 19.3 | 29.0 | 0.00 | 0.00 | 0.00 | 62 | 1011.7 |
| 20260507120844 | 13 | 184 | 12.9 | 27.4 | 0.00 | 0.00 | 0.00 | 66 | 1011.7 |
| 20260507120346 | 13 | 154 | 16.1 | 25.7 | 0.00 | 0.00 | 0.00 | 64 | 1011.9 |
| 20260507115844 | 14 | 206 | 16.1 | 29.0 | 0.00 | 0.00 | 0.00 | 64 | 1011.9 |
| 20260507115424 | 14 | 190 | 14.5 | 25.7 | 0.00 | 0.00 | 0.00 | 67 | 1011.9 |
| 20260507114920 | 13 | 206 | 17.7 | 24.1 | 0.00 | 0.00 | 0.00 | 66 | 1012.0 |
| 20260507114400 | 13 | 126 | 12.9 | 25.7 | 0.00 | 0.00 | 0.00 | 66 | 1012.1 |
| 20260507113851 | 14 | 182 | 16.1 | 22.5 | 0.00 | 0.00 | 0.00 | 64 | 1012.2 |
| 20260507113353 | 13 | 193 | 14.5 | 22.5 | 0.00 | 0.00 | 0.00 | 67 | 1012.2 |
| 20260507112916 | 13 | 173 | 12.9 | 20.9 | 0.00 | 0.00 | 0.00 | 72 | 1012.2 |
| 20260507112350 | 12 | 179 | 8.0 | 14.5 | 0.00 | 0.00 | 0.00 | 71 | 1012.2 |
| 20260507111849 | 12 | 209 | 11.3 | 16.1 | 0.00 | 0.00 | 0.00 | 72 | 1012.3 |
| 20260507111348 | 12 | 175 | 12.9 | 20.9 | 0.00 | 0.00 | 0.00 | 71 | 1012.3 |
| 20260507110841 | 12 | 165 | 14.5 | 20.9 | 0.00 | 0.00 | 0.00 | 70 | 1012.3 |
| 20260507110357 | 12 | 190 | 14.5 | 19.3 | 0.00 | 0.00 | 0.00 | 70 | 1012.3 |
| 20260507105919 | 12 | 211 | 9.7 | 19.3 | 0.00 | 0.00 | 0.00 | 71 | 1012.3 |
| 20260507105344 | 12 | 216 | 14.5 | 19.3 | 0.00 | 0.00 | 0.00 | 70 | 1012.3 |
| 20260507104840 | 12 | 207 | 16.1 | 25.7 | 0.00 | 0.00 | 0.00 | 69 | 1012.4 |
| 20260507104357 | 12 | 144 | 11.3 | 25.7 | 0.00 | 0.00 | 0.00 | 68 | 1012.4 |
| 20260507103855 | 12 | 203 | 16.1 | 22.5 | 0.00 | 0.00 | 0.00 | 67 | 1012.5 |
| 20260507103345 | 12 | 217 | 17.7 | 25.7 | 0.00 | 0.00 | 0.00 | 67 | 1012.5 |
| 20260507102841 | 12 | 202 | 17.7 | 25.7 | 0.00 | 0.00 | 0.00 | 68 | 1012.5 |
| 20260507102356 | 12 | 186 | 14.5 | 29.0 | 0.00 | 0.00 | 0.00 | 68 | 1012.5 |
| 20260507101859 | 12 | 194 | 20.9 | 29.0 | 0.00 | 0.00 | 0.00 | 67 | 1012.5 |
| 20260507101359 | 12 | 163 | 19.3 | 25.7 | 0.00 | 0.00 | 0.00 | 63 | 1012.4 |